Location: Hamburg
(53.5500°N, 10.0000°E)
Time: 18:55:56
(UTC+02:00)

A-11 Canister half - All Passes

Search period start: 27 August 2014 00:00
Search period end: 06 September 2014 00:00
Orbit: 1526 x 1684 km, 47.3° (Epoch: 24 August)

Date Brightness Start Highest point End Pass type
(mag) Time Alt. Az. Time Alt. Az. Time Alt. Az.
27 Aug - 01:02:11 10° SE 01:04:19 11° ESE 01:06:28 10° ESE visible
27 Aug - 02:58:20 10° SSW 03:06:48 34° SE 03:15:27 10° E visible
27 Aug - 05:00:58 10° WSW 05:10:37 58° SSE 05:20:27 10° E visible
27 Aug - 07:05:15 10° W 07:15:03 59° S 07:24:55 10° ESE daylight
27 Aug - 09:10:06 10° W 09:19:01 37° SW 09:27:55 10° SSE daylight
27 Aug - 11:17:31 10° W 11:21:44 13° SW 11:25:56 10° SSW daylight
28 Aug - 02:36:59 10° SSW 02:45:20 33° SE 02:53:52 10° E visible
28 Aug - 04:39:29 10° WSW 04:49:06 57° SSE 04:58:55 10° E visible
28 Aug - 06:43:44 10° W 06:53:31 60° S 07:03:25 10° ESE daylight
28 Aug - 08:48:32 10° W 08:57:32 38° SSW 09:06:32 10° SSE daylight
28 Aug - 10:55:37 10° W 11:00:19 14° SW 11:05:00 10° SSW daylight
29 Aug - 02:15:39 10° SSW 02:23:52 32° SE 02:32:16 10° E visible
29 Aug - 04:18:01 10° WSW 04:27:35 56° SSE 04:37:22 10° E visible
29 Aug - 06:22:13 10° W 06:32:00 60° S 06:41:54 10° ESE daylight
29 Aug - 08:26:59 10° W 08:36:03 40° SSW 08:45:07 10° SSE daylight
29 Aug - 10:33:47 10° W 10:38:54 15° SW 10:44:00 10° SSW daylight
30 Aug - 01:54:20 10° SSW 02:02:25 31° SE 02:10:41 10° E visible
30 Aug - 03:56:33 10° WSW 04:06:04 55° SSE 04:15:49 10° E visible
30 Aug - 06:00:42 10° W 06:10:28 61° S 06:20:23 10° ESE daylight
30 Aug - 08:05:26 10° W 08:14:33 41° SSW 08:23:42 10° SSE daylight
30 Aug - 10:12:00 10° W 10:17:28 16° SW 10:22:57 10° SSW daylight
31 Aug - 01:33:01 10° SSW 01:40:57 29° SE 01:49:05 10° E visible
31 Aug - 03:35:05 10° SW 03:44:33 54° SSE 03:54:16 10° E visible
31 Aug - 05:39:11 10° W 05:48:56 61° S 05:58:51 10° ESE visible
31 Aug - 07:43:53 10° W 07:53:04 42° SSW 08:02:17 10° SE daylight
31 Aug - 09:50:14 10° W 09:56:03 17° SW 10:01:51 10° SSW daylight
01 Sep - 01:11:43 10° SSW 01:19:30 28° SE 01:27:28 10° E visible
01 Sep - 03:13:37 10° SW 03:23:03 53° SSE 03:32:43 10° E visible
01 Sep - 05:17:40 10° W 05:27:25 61° S 05:37:20 10° ESE visible
01 Sep - 07:22:21 10° W 07:31:34 43° SSW 07:40:51 10° SE daylight
01 Sep - 09:28:31 10° W 09:34:37 18° SW 09:40:43 10° SSW daylight
02 Sep - 00:50:26 10° S 00:58:03 27° SE 01:05:51 10° E visible
02 Sep - 02:52:10 10° SW 03:01:32 52° SSE 03:11:10 10° E visible
02 Sep - 04:56:10 10° W 05:05:53 62° S 05:15:48 10° ESE visible
02 Sep - 07:00:49 10° W 07:10:04 44° SSW 07:19:24 10° SE daylight
02 Sep - 09:06:49 10° W 09:13:10 19° SW 09:19:33 10° S daylight
03 Sep - 00:29:09 10° S 00:36:37 26° SE 00:44:14 10° E visible
03 Sep - 02:30:43 10° SW 02:40:02 51° SSE 02:49:37 10° E visible
03 Sep - 04:34:39 10° W 04:44:21 62° S 04:54:16 10° ESE visible
03 Sep - 06:39:16 10° W 06:48:34 45° SSW 06:57:58 10° SE daylight
03 Sep - 08:45:08 10° W 08:51:44 20° SW 08:58:22 10° S daylight
04 Sep - 00:07:54 10° S 00:15:10 25° SE 00:22:37 10° E visible
04 Sep - 02:09:17 10° SW 02:18:32 50° SSE 02:28:04 10° E visible
04 Sep - 04:13:09 10° W 04:22:50 62° S 04:32:44 10° ESE visible
04 Sep - 06:17:45 10° W 06:27:04 46° SSW 06:36:30 10° SE daylight
04 Sep - 08:23:28 10° W 08:30:18 21° SW 08:37:09 10° S daylight
04 Sep - 23:46:39 10° S 23:53:44 24° SE 00:00:58 10° E visible
05 Sep - 01:47:51 10° SW 01:57:02 49° SSE 02:06:30 10° E visible
05 Sep - 03:51:39 10° WSW 04:01:18 62° S 04:11:12 10° ESE visible
05 Sep - 05:56:13 10° W 06:05:34 47° SSW 06:15:03 10° SE visible
05 Sep - 08:01:49 10° W 08:08:51 22° SW 08:15:55 10° S daylight
05 Sep - 23:25:26 10° S 23:32:18 23° SE 23:39:19 10° E visible
